Theta_e
312 312 311 311 311 312 312 310 304 308 311 311 311 311 311 311 311 310 309 307 306 305 309 307 307 307 310 313 312 312 314 314 315 317 318 320 320 321 322 328 329 328 323 327 352
312 312 312 312 312 311 312 314 312 312 312 312 311 309 311 310 310 309 312 306 305 305 311 309 308 308 311 313 312 316 314 314 315 316 317 318 319 321 322 324 327 327 325 350 354
312 312 313 314 314 313 313 313 313 313 312 311 311 311 311 310 309 309 319 311 305 308 309 308 309 309 309 312 312 311 314 314 315 316 317 316 318 318 321 323 324 328 323 329 351
313 313 314 313 313 314 313 312 311 311 311 310 310 310 310 310 314 320 318 305 306 308 308 308 309 309 309 309 311 312 312 313 314 315 317 317 317 317 319 321 323 324 323 324 328
313 313 312 313 312 312 312 311 310 310 310 309 309 310 310 310 311 307 311 310 312 309 308 309 309 310 309 310 310 311 311 311 313 314 314 314 315 315 316 318 321 322 326 325 324
312 312 312 312 312 311 310 310 310 310 309 309 309 310 309 312 310 310 315 318 317 312 307 308 310 311 311 312 311 311 311 311 311 312 313 314 314 314 314 315 316 320 322 325 326
311 310 311 311 310 310 310 309 309 309 309 308 309 310 310 313 313 320 323 319 317 312 308 307 308 311 312 314 313 313 313 315 312 311 311 312 313 313 314 315 317 323 325 327 328
311 311 310 310 310 309 309 309 309 310 309 309 310 310 312 309 310 312 316 316 316 309 309 307 308 310 313 313 314 315 312 317 317 313 311 312 311 313 315 316 316 318 320 325 328
311 311 309 309 311 309 309 308 310 311 309 310 310 309 313 311 313 312 313 315 314 311 309 309 309 310 311 314 315 314 318 316 316 313 313 312 313 315 316 316 317 320 322 324 327
311 310 309 310 310 309 308 308 310 311 311 310 311 311 312 315 314 314 313 313 313 312 311 309 309 310 311 313 318 318 315 315 316 315 313 313 315 316 316 316 318 321 320 322 325
308 309 308 310 310 308 308 309 312 314 311 314 314 313 313 315 315 314 313 311 312 311 310 309 310 313 315 315 316 316 317 318 318 317 314 315 315 316 316 319 319 321 320 324 327
307 307 307 309 309 308 307 309 313 314 317 315 314 314 314 315 318 314 314 314 314 315 312 311 312 312 314 314 315 316 317 318 318 316 315 316 316 317 316 317 321 319 322 324 326
308 306 307 308 306 308 308 309 310 312 315 316 316 316 316 315 318 318 315 314 315 315 314 315 315 315 314 316 316 317 317 318 317 317 317 316 318 317 317 316 316 317 320 321 324
308 307 307 306 307 306 307 310 311 311 321 319 318 319 317 318 319 319 314 314 315 316 315 316 315 314 315 316 317 318 317 317 318 318 319 318 318 320 319 317 317 318 319 319 320
307 307 308 306 306 306 307 310 312 311 325 319 321 318 317 319 318 318 313 314 316 316 315 315 315 315 316 317 317 318 317 318 319 319 319 320 319 320 319 319 320 321 320 321 323
306 307 308 306 305 305 305 309 312 322 323 323 321 320 320 318 316 315 313 315 317 317 316 315 315 316 317 317 316 317 318 318 318 319 320 319 319 319 320 320 322 321 321 321 322
306 306 306 306 306 308 308 309 321 323 319 327 323 320 320 319 318 318 317 317 318 318 318 317 317 317 316 318 317 317 320 321 321 321 320 319 320 320 320 321 320 322 322 322 324
305 305 305 305 305 306 311 319 324 319 318 320 321 320 320 318 319 318 318 317 317 318 318 318 317 317 317 317 318 318 320 320 321 320 320 321 322 321 321 320 319 321 322 323 323
305 305 305 306 307 306 311 323 321 319 318 324 320 322 322 318 319 319 319 318 317 317 318 319 318 319 320 319 319 319 319 318 322 321 321 321 322 322 320 320 321 321 322 322 319
305 304 304 307 307 308 311 316 320 320 322 322 324 323 323 320 318 319 319 318 318 317 317 319 321 320 321 320 319 320 319 324 322 325 323 322 323 320 323 322 322 321 321 319 316
305 305 306 308 308 311 312 313 317 319 319 320 321 325 324 321 319 319 319 321 318 317 317 318 320 321 320 322 322 320 322 322 324 325 326 323 322 322 323 323 322 320 318 317 317
304 306 305 308 317 315 315 315 316 319 317 321 323 323 324 324 324 323 321 323 320 317 317 318 321 321 322 319 319 321 322 323 326 326 324 324 323 319 320 321 320 317 315 315 315
305 305 306 311 318 319 318 317 318 318 320 320 322 320 321 324 324 322 322 320 321 322 322 323 325 326 323 320 320 322 321 320 322 323 326 327 324 318 317 317 316 315 314 314 313
307 307 310 314 314 315 317 318 318 315 318 320 321 320 320 321 320 323 323 319 321 323 324 324 323 326 328 324 323 325 323 320 322 324 322 323 322 320 319 318 316 315 314 313 312
307 307 310 312 312 312 315 317 319 319 318 319 321 321 321 321 319 320 319 319 318 319 317 322 325 324 321 321 321 322 323 322 322 322 322 320 322 321 320 319 317 315 314 313 313
308 309 308 308 310 313 313 316 317 317 317 317 321 319 318 317 318 319 319 319 320 319 319 317 322 320 321 319 319 320 320 320 321 321 322 321 321 319 316 315 314 314 313 313 312
306 306 307 307 308 310 313 312 313 313 316 316 317 317 318 316 313 312 314 314 316 319 319 320 320 321 320 319 318 319 319 319 318 318 320 321 319 317 315 316 315 314 313 312 311
Wind_Speed
17 17 17 17 17 18 17 18 16 15 13 13 12 12 13 14 15 11 11 11 3 13 8 14 10 9 3 3 2 2 6 11 12 13 9 6 7 2 5 5 6 4 2 3 7
18 18 18 18 18 18 18 18 18 17 16 15 14 13 12 12 16 20 24 13 9 19 14 14 11 13 5 5 4 6 6 10 5 11 8 15 15 11 7 10 5 4 9 7 9
20 20 20 20 19 19 18 17 18 18 17 16 14 13 11 11 7 7 8 15 14 21 12 7 18 7 6 4 6 4 7 5 5 10 12 17 8 4 13 17 9 7 4 6 6
23 23 22 21 21 20 19 18 18 19 20 18 14 12 9 4 4 0 6 21 20 18 13 15 10 9 7 9 6 5 8 11 5 9 7 14 11 14 15 18 15 7 8 3 5
24 24 23 23 23 22 21 20 20 19 20 19 14 7 4 3 11 4 2 14 20 19 16 10 14 6 8 7 7 10 11 8 13 14 15 14 17 18 18 18 21 13 8 1 5
24 24 24 24 24 23 23 22 22 23 22 16 10 4 2 6 6 7 10 16 15 17 15 13 10 6 5 5 9 7 13 14 11 15 10 17 22 18 13 14 24 20 19 7 3
23 24 24 23 24 24 24 24 25 22 18 13 6 7 5 15 3 4 13 10 14 12 9 11 5 6 5 5 5 3 8 10 12 15 12 13 20 22 13 18 21 13 16 14 8
24 25 25 24 25 25 24 27 25 19 13 8 7 9 9 5 7 13 8 5 12 8 8 10 8 4 1 2 1 3 2 6 6 13 11 15 18 20 14 19 19 20 15 7 13
24 25 25 27 27 25 24 25 13 8 5 11 8 5 9 4 8 18 18 10 16 5 8 10 5 3 3 1 3 3 5 7 10 13 7 15 15 21 21 17 17 14 14 11 15
25 25 27 27 27 26 24 23 3 5 9 8 3 4 8 4 6 10 18 22 6 11 5 4 3 5 4 4 5 4 5 6 10 1 16 15 20 18 17 20 16 13 16 14 18
25 26 27 28 28 26 28 2 3 3 7 10 8 5 3 3 8 9 19 13 11 6 7 5 5 10 13 14 11 8 11 14 16 8 8 20 22 21 15 16 17 17 18 18 23
27 27 27 29 30 32 6 4 5 2 10 21 19 14 12 3 1 9 22 10 8 9 8 5 11 14 11 9 14 15 15 18 15 4 9 7 18 18 9 12 16 16 20 15 18
28 31 31 31 35 6 6 12 4 4 5 7 10 10 9 14 9 11 21 11 13 12 14 9 2 16 12 11 12 15 14 14 12 7 4 3 5 8 7 12 10 11 18 15 16
29 31 31 31 8 11 12 4 13 8 5 6 7 7 10 10 8 13 25 16 6 17 12 10 12 11 10 12 12 15 14 17 14 5 7 3 3 3 3 9 12 11 11 18 15
33 29 28 19 18 6 5 5 4 2 6 5 5 9 11 16 10 12 27 13 16 9 8 9 10 14 13 11 11 8 7 15 8 7 4 4 4 3 2 6 8 11 11 9 9
37 34 28 20 13 23 20 11 4 5 9 4 8 8 11 9 6 8 14 12 8 11 8 13 3 5 5 5 10 5 3 4 3 3 7 1 3 3 4 3 2 3 5 8 11
40 41 37 24 7 2 4 5 5 7 7 4 6 9 18 11 9 12 16 17 14 15 14 9 13 9 8 9 6 8 7 6 7 6 7 1 4 0 3 1 4 6 7 10 12
43 46 28 20 16 21 2 3 10 6 14 12 3 8 13 11 15 11 16 16 15 12 8 11 9 13 9 13 7 9 11 7 10 8 6 3 5 3 2 5 6 6 10 12 12
39 23 16 8 9 15 8 8 11 12 8 9 3 5 10 11 9 16 14 18 17 17 9 9 9 3 5 4 8 6 6 1 5 2 3 2 2 5 1 5 8 12 12 11 10
28 16 11 11 12 17 8 17 16 15 5 3 6 8 12 11 10 17 14 14 15 19 16 5 4 4 5 5 5 4 10 4 2 6 7 4 3 5 5 9 13 14 13 10 8
15 8 10 0 14 6 10 11 22 12 10 8 9 4 7 4 10 11 15 3 18 15 16 13 3 3 2 4 7 5 4 4 4 1 4 6 4 1 5 12 15 12 9 9 9
8 6 3 4 2 4 11 9 10 9 11 9 6 10 11 13 4 4 3 0 2 11 13 3 3 5 1 2 2 2 3 5 6 6 1 1 3 5 5 12 12 9 8 8 10
6 5 6 4 4 5 12 14 8 11 15 13 9 1 6 6 4 5 3 5 1 4 9 6 1 1 3 3 1 4 4 4 5 2 8 8 4 3 6 8 6 11 10 10 11
3 5 3 1 3 10 9 8 12 8 9 9 3 2 5 6 1 7 7 3 4 4 11 9 2 5 7 3 2 4 7 7 8 5 8 9 7 5 5 7 8 8 10 10 8
2 3 3 5 6 13 13 8 3 4 2 2 1 5 10 5 2 5 5 7 3 2 5 6 9 14 9 11 3 3 7 7 7 7 7 6 8 7 7 9 10 9 9 9 7
3 3 4 7 10 12 7 4 6 1 4 6 2 6 11 6 6 11 6 2 3 3 3 1 4 4 4 2 1 4 6 8 10 9 9 9 12 6 3 6 11 11 10 9 4
4 7 4 5 7 7 4 8 10 2 3 8 4 3 12 8 1 5 9 7 6 3 3 2 5 3 3 2 0 8 13 15 13 11 12 14 13 7 6 9 10 9 6 5 5
Wind_Direction
357 353 350 348 345 343 339 338 335 330 324 322 322 318 303 299 299 285 247 237 219 204 149 126 138 160 136 120 110 152 223 233 229 217 228 217 242 220 319 262 288 294 114 314 163
346 343 341 338 337 335 334 333 331 329 325 320 317 323 309 309 295 259 269 241 214 171 155 151 145 147 148 156 165 205 223 224 222 230 245 247 248 263 306 307 294 237 90 100 157
338 335 333 331 329 327 326 325 324 323 323 317 315 320 319 323 283 241 313 201 174 164 165 159 149 143 160 169 177 165 239 205 231 237 236 253 248 259 257 268 277 279 128 102 167
335 333 331 330 326 324 322 322 319 316 316 314 310 316 321 332 277 39 46 159 165 170 150 137 158 153 159 180 178 216 221 222 234 231 243 256 271 253 244 256 274 302 311 81 131
333 331 330 329 327 325 322 319 316 314 311 307 301 311 313 238 254 233 199 152 168 174 172 157 163 149 178 177 168 222 241 225 236 243 248 264 264 256 260 265 275 289 262 236 119
333 332 330 329 329 327 324 321 316 311 306 297 284 251 218 252 254 255 206 167 174 170 180 170 180 177 138 174 199 202 242 253 245 237 236 244 255 249 251 273 269 270 260 207 242
332 331 329 330 329 328 324 320 313 305 295 286 233 201 230 246 168 144 163 188 186 177 163 180 160 186 154 160 256 312 289 279 245 241 245 224 250 253 263 256 260 267 258 218 222
331 329 328 327 327 326 323 321 319 310 272 247 196 182 252 244 234 212 189 146 165 151 177 147 143 148 196 337 350 272 259 276 287 210 229 194 252 260 250 251 247 254 270 298 243
329 327 327 328 323 323 324 323 324 350 107 145 150 200 259 277 217 215 196 151 159 179 99 148 165 143 154 218 302 204 259 245 289 213 207 187 239 245 244 237 234 228 235 257 274
324 324 327 324 323 323 323 325 304 79 110 137 126 236 246 207 177 164 173 148 142 156 139 135 139 166 155 184 208 190 229 248 259 225 220 212 237 237 230 203 208 225 230 244 248
328 326 327 325 321 321 319 326 211 208 217 206 190 254 282 235 150 161 163 147 131 161 168 187 189 199 198 203 234 266 285 278 272 262 208 222 228 237 250 201 206 223 221 212 220
331 330 327 324 322 318 273 214 231 324 275 229 234 244 263 314 318 159 157 164 171 175 135 149 225 217 229 220 226 244 264 267 284 262 212 225 230 235 217 237 220 212 218 218 219
331 334 334 329 327 321 245 244 213 345 259 250 200 220 221 192 221 203 175 167 181 193 191 201 174 215 207 224 220 236 241 258 266 317 194 204 240 236 233 230 242 224 220 221 220
327 329 332 334 349 336 284 312 315 213 269 241 208 236 172 167 214 187 187 176 173 202 183 220 228 212 213 238 228 250 227 246 263 265 234 260 257 186 276 222 194 188 199 211 217
323 321 321 322 288 264 283 190 34 223 287 173 168 144 157 177 137 190 185 189 198 167 181 201 189 210 223 223 185 249 240 217 231 224 280 191 235 118 219 204 204 174 188 189 178
322 320 316 315 258 263 271 279 293 219 243 222 145 166 163 202 164 135 172 194 170 187 208 226 187 205 216 236 200 147 145 103 119 168 235 184 256 149 157 167 138 186 158 168 160
323 319 306 274 242 93 109 160 228 236 310 204 180 173 187 180 178 174 176 187 188 195 210 210 235 250 231 250 195 195 194 193 209 208 242 143 203 93 161 223 263 239 158 143 138
326 319 307 265 250 227 120 180 235 249 248 298 297 174 192 165 203 170 181 192 203 193 201 211 221 215 210 218 218 191 207 220 216 213 215 172 205 161 303 284 248 165 144 130 124
329 316 302 307 223 196 178 199 219 216 253 315 316 216 216 203 186 194 197 203 199 196 202 186 219 161 198 174 186 166 205 157 112 79 223 181 225 247 90 66 125 129 133 134 121
327 314 297 312 168 166 212 217 215 212 272 305 296 173 282 204 181 189 184 204 195 196 205 183 178 189 147 145 68 217 139 163 167 206 235 197 242 240 178 146 150 152 147 140 115
325 321 342 186 148 190 218 228 224 220 275 269 268 179 321 251 226 195 192 154 194 186 196 209 223 176 228 204 175 150 167 77 110 118 237 244 219 196 218 173 160 155 148 149 146
324 310 191 241 254 232 240 234 233 250 255 265 256 228 193 281 227 328 203 292 345 147 165 162 164 223 238 355 335 108 154 182 225 200 165 305 221 5 199 166 161 151 138 127 126
316 284 307 232 261 294 303 266 278 288 293 262 235 206 148 191 207 222 274 344 169 117 147 155 18 95 204 195 252 219 146 98 89 95 215 229 231 60 107 127 141 140 137 133 132
297 312 293 289 313 345 327 288 233 286 309 297 252 142 44 141 72 206 187 349 345 90 100 78 90 177 199 356 271 202 193 182 197 227 242 235 238 158 156 154 154 142 143 143 139
211 265 283 312 331 315 293 293 321 297 245 302 219 245 154 33 81 226 151 138 93 127 86 153 176 195 196 200 188 160 178 173 200 223 226 255 219 224 204 193 180 159 163 150 142
275 283 347 290 294 317 303 305 315 326 313 326 316 133 112 119 264 288 132 160 140 99 104 180 120 153 131 109 207 224 204 212 225 234 248 245 252 260 157 153 156 164 172 149 123
324 305 297 277 286 300 300 341 321 324 211 59 345 119 124 127 351 320 77 77 98 108 111 88 131 134 201 51 297 264 244 235 234 231 243 251 258 176 164 178 165 151 139 101 54